TimeCDT,TemperatureF,Dew PointF,Humidity,Sea Level PressureIn,VisibilityMPH,Wind Direction,Wind SpeedMPH,Gust SpeedMPH,PrecipitationIn,Events,Conditions,WindDirDegrees,DateUTC
12:56 AM,-9999,-9999,N/A,29.92,6.0,Calm,Calm,-,N/A,,Haze,0,2013-09-03 05:56:00
1:04 AM,-9999,-9999,N/A,29.93,6.0,Calm,Calm,-,N/A,,Haze,0,2013-09-03 06:04:00
1:20 AM,-9999,-9999,N/A,29.93,9.0,Calm,Calm,-,N/A,,Mostly Cloudy,0,2013-09-03 06:20:00
1:56 AM,-9999,-9999,N/A,29.93,5.0,Calm,Calm,-,N/A,,Haze,0,2013-09-03 06:56:00
2:06 AM,-9999,-9999,N/A,29.93,6.0,Calm,Calm,-,N/A,,Haze,0,2013-09-03 07:06:00
2:13 AM,-9999,-9999,N/A,29.93,6.0,Calm,Calm,-,N/A,,Haze,0,2013-09-03 07:13:00
2:25 AM,-9999,-9999,N/A,29.93,4.0,Calm,Calm,-,N/A,,Haze,0,2013-09-03 07:25:00
2:34 AM,-9999,-9999,N/A,29.93,5.0,Calm,Calm,-,N/A,,Haze,0,2013-09-03 07:34:00
2:56 AM,-9999,-9999,N/A,29.93,5.0,Calm,Calm,-,N/A,,Haze,0,2013-09-03 07:56:00
3:05 AM,-9999,-9999,N/A,29.93,5.0,Calm,Calm,-,N/A,,Haze,0,2013-09-03 08:05:00
3:56 AM,-9999,-9999,N/A,29.93,3.0,Calm,Calm,-,N/A,,Overcast,0,2013-09-03 08:56:00
4:05 AM,-9999,-9999,N/A,29.93,3.0,Calm,Calm,-,N/A,,Overcast,0,2013-09-03 09:05:00
4:23 AM,-9999,-9999,N/A,29.93,4.0,Calm,Calm,-,N/A,,Haze,0,2013-09-03 09:23:00
4:38 AM,-9999,-9999,N/A,29.94,2.0,Calm,Calm,-,N/A,,Mostly Cloudy,0,2013-09-03 09:38:00
4:56 AM,-9999,-9999,N/A,29.95,2.5,Calm,Calm,-,N/A,,Overcast,0,2013-09-03 09:56:00
5:13 AM,-9999,-9999,N/A,29.96,3.0,Calm,Calm,-,N/A,,Overcast,0,2013-09-03 10:13:00
5:56 AM,-9999,-9999,N/A,29.97,6.0,Calm,Calm,-,N/A,,Haze,0,2013-09-03 10:56:00
6:36 AM,-9999,-9999,N/A,29.99,4.0,Calm,Calm,-,N/A,,Haze,0,2013-09-03 11:36:00
6:56 AM,-9999,-9999,N/A,29.99,4.0,North,6.9,-,N/A,,Haze,10,2013-09-03 11:56:00
7:24 AM,-9999,-9999,N/A,30.00,7.0,North,6.9,-,N/A,,Scattered Clouds,10,2013-09-03 12:24:00
7:56 AM,-9999,-9999,N/A,30.01,10.0,Calm,Calm,-,N/A,,Clear,0,2013-09-03 12:56:00
8:28 AM,-9999,-9999,N/A,30.02,10.0,Calm,Calm,-,N/A,,Mostly Cloudy,0,2013-09-03 13:28:00